Wind_Speed
33 33 32 33 33 33 33 33 34 34 33 34 34 33 33 34 33 33 33 33 33 33 33 33 32 32 32 32 32 32 32 32 32 32 31 31 31 30 29 28 28 28 28
34 35 35 35 35 36 36 36 36 36 36 36 36 36 36 36 36 35 35 35 35 35 35 35 34 34 34 34 34 33 34 34 33 34 34 33 33 33 32 31 30 30 30
36 36 36 36 37 37 38 38 38 39 38 38 37 38 37 38 38 38 38 38 38 37 37 37 37 37 36 37 37 36 36 36 35 35 35 35 35 35 34 34 33 32 32
38 39 39 39 39 39 39 39 39 39 39 39 39 40 40 40 41 41 40 39 39 39 40 40 40 40 40 39 39 38 38 38 38 37 37 37 36 37 37 36 36 35 34
40 41 41 41 40 40 40 40 40 40 40 40 41 41 41 40 41 42 42 42 42 42 42 42 42 42 42 42 42 41 41 40 40 40 39 39 38 38 38 38 38 37 37
42 43 43 42 42 42 42 41 42 42 42 42 42 42 42 42 42 42 43 44 44 43 44 44 44 44 44 44 44 44 43 42 42 42 42 42 41 40 40 40 40 40 39
44 44 44 44 43 43 43 43 43 43 43 43 43 43 43 43 44 44 44 44 45 45 45 45 46 46 46 46 46 46 45 45 44 44 44 43 43 43 43 43 42 42 41
46 46 45 45 45 45 45 45 45 45 45 45 45 45 45 45 45 45 46 46 46 46 46 47 47 47 47 47 48 48 48 47 46 46 46 45 45 46 46 46 45 45 44
47 47 47 46 46 46 46 47 46 46 47 47 47 47 47 46 46 47 47 47 46 46 46 47 47 48 49 49 49 50 50 50 49 48 48 48 47 46 47 47 47 47 47
48 47 47 48 48 48 48 48 48 48 48 48 48 48 48 49 48 47 47 48 48 48 48 48 48 49 49 49 50 50 51 51 51 50 49 49 49 48 47 46 47 47 48
50 50 49 49 50 50 50 50 50 50 49 49 49 49 49 49 49 49 48 49 49 49 50 49 49 49 49 49 49 50 50 51 51 51 50 49 49 48 48 48 48 48 47
52 52 52 52 52 52 51 51 51 51 51 50 50 50 50 50 50 50 50 49 50 50 50 50 50 50 50 50 50 50 51 51 50 50 50 50 49 49 48 49 48 49 48
54 54 54 54 53 53 53 52 52 52 52 51 51 51 51 51 52 51 51 50 50 50 51 51 51 51 51 51 51 51 51 51 50 50 50 50 49 49 49 49 48 48 48
54 54 55 55 54 54 54 53 53 53 53 52 52 52 52 51 52 52 52 52 51 51 51 50 51 51 51 52 52 51 51 52 51 50 50 50 50 50 50 50 49 49 49
54 55 55 55 55 55 54 54 54 53 52 53 53 53 53 53 53 53 53 53 52 52 51 50 51 52 52 52 52 51 51 52 52 51 50 51 51 51 50 51 51 50 49
54 55 55 55 55 55 55 54 54 54 54 54 54 54 55 55 55 55 55 55 55 54 54 52 52 52 53 53 53 52 51 52 51 51 50 51 51 51 51 51 51 50 50
54 55 55 55 55 55 55 55 55 55 55 55 55 55 55 56 56 55 56 57 56 56 56 55 54 53 53 54 53 53 52 52 52 52 52 52 52 52 52 52 53 52 51
54 54 55 55 54 54 55 55 56 57 56 56 55 56 56 57 57 57 58 58 58 57 57 56 56 55 54 54 54 53 53 53 53 53 53 53 53 53 53 53 54 54 53
53 53 53 54 54 54 55 56 56 56 57 57 57 56 56 57 57 58 58 59 58 58 58 58 56 56 55 55 55 55 54 54 55 55 55 54 54 55 54 53 53 54 53
54 54 54 55 55 55 56 56 57 57 57 57 57 56 56 57 57 58 58 58 58 58 57 57 56 55 56 56 56 56 56 55 55 55 55 55 55 55 56 55 55 55 54
54 54 55 56 56 57 57 56 57 57 58 58 58 56 56 56 56 56 56 56 57 57 57 56 55 55 55 55 55 56 56 56 55 55 55 55 55 56 57 57 56 55 55
55 55 55 56 57 57 56 56 56 57 57 57 57 57 56 55 55 54 54 54 54 55 55 56 55 55 55 54 55 55 55 56 56 56 56 55 56 55 56 57 57 57 57
55 55 55 55 56 56 56 56 56 57 56 56 56 56 56 55 54 54 54 53 53 53 54 55 54 54 54 54 54 55 55 55 55 55 56 56 57 57 57 57 57 57 58
53 53 54 54 55 55 55 55 55 55 55 55 55 56 55 55 55 55 54 54 54 54 54 54 54 54 53 53 54 54 54 55 55 56 56 56 57 58 57 57 57 58 58
51 52 52 53 53 54 55 54 54 54 55 54 55 56 56 56 55 56 55 54 53 53 53 53 54 54 53 53 54 54 54 54 55 55 56 56 56 57 58 58 58 58 59
50 51 52 53 54 54 54 54 54 54 54 54 54 55 55 56 55 54 54 54 53 53 53 54 54 54 54 54 53 53 54 54 55 55 56 57 57 58 58 57 58 58 59
Wind_Direction
260 260 261 262 263 263 263 263 264 263 263 263 263 264 265 265 265 265 265 264 264 264 264 264 264 264 263 264 265 265 264 263 263 263 264 264 265 266 265 265 265 265 266
262 262 262 262 262 263 264 264 265 265 264 264 263 264 264 264 265 265 265 265 264 264 264 264 264 265 264 264 265 265 264 264 263 263 263 263 264 264 264 264 265 266 266
262 262 263 264 263 263 264 265 266 267 266 265 264 263 263 264 265 265 266 265 265 264 263 263 263 264 265 264 263 264 264 264 263 263 263 263 263 263 264 263 264 265 266
263 263 263 264 264 263 264 264 266 267 266 266 266 264 264 265 265 265 265 266 265 265 264 263 263 264 264 264 264 264 264 264 263 263 264 263 263 263 263 264 264 264 265
264 264 264 264 264 264 264 265 266 266 266 267 267 265 264 265 265 265 265 265 266 266 265 265 264 263 264 264 264 264 264 263 263 263 264 264 264 264 264 264 264 263 264
264 265 265 264 264 265 265 266 267 267 267 267 266 266 265 265 265 265 265 265 266 265 265 265 264 263 263 263 263 263 262 262 263 263 263 263 263 263 263 264 263 263 264
264 264 265 265 264 265 265 266 266 267 268 267 266 266 265 266 267 266 266 266 266 266 266 265 264 263 262 262 262 262 262 262 262 262 262 262 263 263 263 263 263 264 263
263 264 265 265 266 266 266 267 267 268 268 268 267 267 267 266 267 268 268 267 266 266 266 266 265 264 263 262 262 261 262 262 262 262 262 262 263 263 264 263 263 263 262
263 263 264 265 266 267 268 268 268 269 269 268 268 267 267 267 268 268 268 268 267 267 267 267 267 266 264 264 262 261 261 261 262 262 262 262 263 263 264 263 263 262 262
262 263 263 264 266 267 267 269 270 270 270 269 268 267 268 268 268 268 268 268 268 267 267 267 267 266 265 264 263 262 261 261 262 262 262 262 262 263 263 264 263 263 263
263 263 263 264 265 267 268 268 270 271 271 270 269 268 268 269 269 269 268 268 268 268 268 268 268 267 265 264 263 263 263 262 262 262 262 261 262 262 263 263 264 264 264
263 263 263 264 265 266 268 269 270 270 270 269 268 269 269 269 269 268 268 268 268 268 269 269 268 267 266 265 264 263 263 262 261 261 261 261 261 261 262 263 264 263 263
264 264 263 264 265 265 267 268 268 268 268 268 268 268 269 269 269 269 269 268 268 268 268 268 268 267 266 265 264 264 263 262 261 261 261 261 260 260 261 262 263 263 263
263 264 264 264 264 265 265 266 266 267 267 267 267 268 268 269 270 269 269 269 268 268 267 268 268 268 267 266 265 264 263 262 261 261 261 261 261 260 260 262 262 262 263
263 264 264 264 264 264 264 265 265 266 267 266 266 267 268 269 269 269 269 269 269 268 268 268 268 268 266 265 264 264 263 262 261 260 261 261 261 261 261 262 262 263 263
264 263 263 264 264 264 265 265 265 265 266 266 267 268 269 270 270 270 269 270 269 269 269 267 267 267 265 265 264 263 262 261 260 259 260 260 260 260 261 262 262 263 264
265 264 264 264 264 265 266 265 265 265 265 266 267 268 269 269 269 269 269 270 270 270 270 268 266 265 264 263 264 263 262 261 259 259 259 260 260 259 259 260 261 263 264
266 266 265 265 265 265 266 266 266 266 266 266 267 268 269 269 269 269 269 269 269 270 270 269 266 265 263 262 262 262 262 261 259 259 260 260 260 259 258 259 261 262 263
266 266 266 266 265 266 266 266 266 266 267 268 268 268 269 269 270 269 269 268 268 268 268 267 266 264 263 262 262 262 261 260 259 259 260 261 260 258 259 259 259 261 262
267 267 267 266 266 266 267 267 267 268 268 268 268 269 269 269 269 269 268 267 267 267 267 266 265 264 263 263 262 262 261 260 259 259 260 261 260 258 258 259 259 260 262
268 268 268 268 267 268 268 268 269 269 269 268 268 268 268 268 269 268 268 267 267 266 265 265 264 264 263 263 262 262 261 259 259 259 260 260 260 259 260 260 261 261 262
269 269 269 269 269 268 268 269 270 269 269 268 267 267 267 268 268 267 268 267 267 266 265 264 263 263 263 263 263 262 261 260 260 260 260 260 260 260 261 260 261 261 261
269 269 269 269 270 269 269 270 270 269 269 268 266 266 266 265 265 266 266 266 266 265 263 262 262 262 262 262 262 261 260 260 260 261 261 261 261 259 261 262 262 262 262
269 269 270 270 270 270 270 271 269 268 267 267 267 266 265 265 265 266 265 264 263 263 262 261 261 262 262 262 262 260 260 261 260 260 261 261 261 261 262 262 262 262 263
270 270 270 271 271 271 272 271 269 268 267 267 267 266 266 266 266 266 266 264 263 262 261 261 261 261 262 262 262 261 261 261 261 260 260 262 262 261 262 262 262 262 263
272 271 271 271 272 272 272 271 269 268 268 267 267 266 267 267 267 267 266 265 263 262 261 260 261 261 262 262 262 262 262 261 260 261 262 261 262 262 262 262 262 262 263
Height
5788 5789 5790 5791 5792 5792 5793 5794 5795 5795 5796 5797 5798 5799 5800 5801 5801 5802 5803 5804 5805 5806 5807 5808 5809 5810 5811 5812 5812 5814 5814 5815 5816 5817 5817 5818 5819 5819 5820 5820 5821 5821 5822
5780 5781 5782 5783 5783 5784 5785 5786 5787 5787 5788 5789 5790 5791 5792 5792 5793 5794 5795 5796 5797 5798 5799 5799 5800 5802 5803 5804 5804 5805 5807 5808 5808 5809 5810 5811 5811 5812 5813 5813 5814 5814 5815
5772 5773 5774 5775 5775 5776 5777 5777 5778 5779 5779 5780 5781 5782 5782 5783 5784 5785 5786 5787 5788 5788 5789 5790 5792 5793 5794 5794 5795 5797 5798 5799 5800 5801 5802 5803 5803 5804 5805 5806 5806 5807 5808
5763 5764 5764 5765 5766 5767 5767 5768 5769 5769 5770 5771 5772 5772 5773 5774 5775 5776 5776 5777 5778 5779 5780 5781 5782 5783 5784 5785 5786 5787 5789 5790 5791 5792 5793 5794 5795 5796 5797 5797 5798 5799 5800
5754 5754 5755 5756 5756 5757 5758 5758 5759 5760 5760 5761 5762 5762 5763 5763 5764 5765 5766 5767 5767 5768 5769 5771 5772 5773 5774 5775 5776 5777 5778 5780 5781 5782 5783 5784 5786 5787 5788 5788 5789 5790 5791
5744 5744 5745 5746 5746 5747 5747 5748 5749 5749 5750 5751 5751 5752 5752 5753 5753 5754 5755 5755 5756 5756 5757 5759 5760 5761 5763 5764 5765 5766 5767 5769 5770 5771 5773 5774 5775 5777 5778 5779 5779 5780 5781
5733 5734 5734 5735 5736 5736 5737 5737 5738 5738 5739 5739 5740 5741 5741 5742 5742 5743 5743 5743 5744 5744 5745 5746 5747 5749 5751 5752 5753 5755 5756 5758 5759 5760 5761 5763 5764 5766 5767 5768 5769 5770 5771
5722 5723 5724 5724 5724 5725 5726 5726 5727 5727 5728 5728 5729 5729 5730 5732 5731 5731 5731 5731 5731 5732 5732 5733 5734 5735 5737 5739 5741 5742 5744 5745 5747 5748 5749 5751 5752 5754 5755 5756 5757 5758 5759
5710 5711 5712 5712 5713 5713 5714 5714 5715 5715 5716 5716 5716 5717 5718 5719 5719 5720 5719 5718 5719 5719 5719 5720 5721 5722 5723 5725 5727 5729 5731 5732 5733 5735 5736 5738 5740 5741 5742 5743 5745 5746 5747
5698 5699 5699 5700 5701 5701 5702 5702 5702 5703 5703 5703 5703 5704 5704 5705 5706 5707 5707 5706 5706 5706 5707 5707 5708 5708 5710 5711 5713 5715 5717 5718 5720 5721 5723 5725 5726 5728 5729 5731 5732 5733 5733
5686 5686 5686 5687 5688 5688 5688 5689 5689 5690 5690 5690 5690 5691 5691 5691 5691 5692 5693 5693 5693 5693 5693 5694 5694 5695 5696 5697 5699 5701 5702 5704 5706 5708 5710 5712 5713 5715 5717 5718 5719 5720 5721
5672 5673 5673 5674 5674 5674 5675 5675 5675 5676 5676 5676 5677 5677 5678 5678 5678 5678 5679 5679 5680 5680 5680 5680 5681 5681 5682 5683 5685 5686 5688 5690 5692 5694 5696 5699 5700 5702 5704 5705 5706 5708 5709
5659 5659 5659 5660 5660 5661 5661 5661 5661 5662 5662 5663 5663 5664 5664 5664 5664 5664 5664 5665 5665 5667 5667 5667 5667 5667 5668 5669 5670 5672 5674 5676 5678 5681 5683 5685 5687 5689 5691 5692 5693 5695 5696
5644 5644 5645 5645 5646 5646 5647 5647 5647 5648 5648 5649 5649 5649 5649 5650 5650 5650 5650 5650 5651 5652 5653 5654 5653 5653 5654 5654 5656 5657 5659 5662 5664 5667 5669 5672 5674 5676 5678 5679 5681 5682 5683
5629 5630 5630 5630 5631 5631 5632 5632 5633 5633 5634 5634 5635 5635 5635 5635 5635 5635 5635 5635 5636 5637 5639 5640 5640 5640 5639 5640 5641 5643 5645 5647 5650 5653 5656 5658 5660 5662 5665 5666 5667 5669 5670
5614 5615 5615 5615 5616 5616 5617 5617 5618 5618 5619 5619 5619 5620 5620 5620 5620 5620 5620 5620 5620 5621 5623 5626 5625 5625 5625 5626 5627 5628 5631 5633 5636 5639 5641 5644 5646 5649 5651 5652 5653 5655 5657
5599 5599 5599 5600 5601 5601 5601 5602 5603 5603 5604 5604 5604 5604 5605 5605 5605 5604 5604 5605 5605 5605 5606 5609 5609 5610 5610 5611 5613 5614 5616 5618 5621 5624 5627 5629 5632 5634 5636 5638 5639 5641 5643
5584 5584 5585 5585 5585 5586 5586 5586 5587 5587 5588 5588 5588 5589 5589 5589 5589 5589 5589 5589 5589 5589 5590 5591 5593 5594 5595 5596 5598 5600 5601 5603 5606 5609 5612 5614 5617 5619 5621 5623 5625 5627 5629
5569 5569 5569 5570 5570 5570 5570 5571 5571 5572 5572 5572 5572 5572 5572 5572 5573 5572 5572 5572 5572 5572 5573 5574 5576 5577 5579 5580 5582 5584 5586 5588 5591 5594 5597 5599 5601 5604 5606 5608 5610 5612 5614
5554 5554 5554 5554 5554 5554 5555 5555 5555 5556 5556 5556 5556 5556 5556 5556 5556 5555 5555 5555 5555 5556 5556 5557 5559 5560 5562 5564 5566 5568 5570 5573 5576 5579 5581 5584 5586 5588 5591 5592 5595 5597 5598
5538 5538 5538 5538 5538 5538 5538 5538 5539 5539 5539 5539 5539 5540 5540 5539 5538 5538 5538 5538 5539 5539 5540 5541 5543 5545 5546 5548 5550 5552 5554 5557 5560 5563 5566 5569 5571 5573 5575 5577 5579 5581 5582
5523 5523 5523 5522 5522 5522 5522 5522 5522 5522 5522 5522 5522 5523 5523 5523 5522 5522 5522 5522 5523 5523 5525 5526 5528 5529 5531 5533 5535 5536 5538 5542 5545 5549 5550 5553 5554 5557 5559 5561 5563 5565 5567
5508 5507 5507 5507 5506 5506 5505 5505 5505 5505 5505 5505 5506 5506 5507 5506 5506 5506 5506 5506 5507 5507 5508 5510 5512 5513 5516 5518 5519 5521 5523 5525 5529 5531 5533 5537 5538 5541 5543 5545 5547 5549 5551
5492 5492 5491 5491 5490 5490 5489 5489 5488 5489 5489 5489 5490 5490 5490 5490 5490 5490 5491 5491 5492 5492 5493 5495 5497 5498 5500 5501 5503 5505 5507 5510 5513 5515 5517 5521 5523 5525 5527 5529 5531 5533 5534
5477 5476 5475 5475 5475 5474 5473 5473 5472 5473 5473 5474 5474 5474 5474 5474 5474 5475 5475 5476 5477 5477 5477 5479 5481 5482 5484 5486 5488 5490 5492 5494 5498 5500 5502 5504 5507 5508 5511 5513 5515 5516 5517
5461 5461 5460 5459 5459 5459 5457 5456 5456 5457 5458 5459 5459 5459 5458 5458 5458 5458 5460 5461 5462 5462 5462 5464 5465 5467 5469 5470 5472 5474 5477 5479 5481 5484 5486 5488 5490 5491 5495 5498 5498 5499 5500